| time (UTC) | temp F | wind direction | speed MPH | gust MPH | rain 1hr in | rain 24hr in | rain mn in | humidity % | barometer mb |
| 20260505175643 | 77 | 139 | 6.0 | 9.0 | 0.00 | 0.00 | 0.00 | 46 | 1007.7 |
| 20260505175142 | 78 | 216 | 7.0 | 10.0 | 0.00 | 0.00 | 0.00 | 43 | 1007.7 |
| 20260505174641 | 78 | 159 | 6.0 | 10.0 | 0.00 | 0.00 | 0.00 | 39 | 1007.7 |
| 20260505174142 | 78 | 287 | 5.0 | 9.0 | 0.00 | 0.00 | 0.00 | 37 | 1007.7 |
| 20260505173641 | 79 | 277 | 5.0 | 8.0 | 0.00 | 0.00 | 0.00 | 38 | 1008.2 |
| 20260505173141 | 79 | 20 | 9.0 | 20.0 | 0.00 | 0.00 | 0.00 | 37 | 1008.0 |
| 20260505172640 | 79 | 351 | 9.0 | 11.0 | 0.00 | 0.00 | 0.00 | 38 | 1008.0 |
| 20260505172139 | 79 | 162 | 10.0 | 13.0 | 0.00 | 0.00 | 0.00 | 39 | 1008.0 |
| 20260505171640 | 79 | 282 | 7.0 | 16.0 | 0.00 | 0.00 | 0.00 | 40 | 1008.0 |
| 20260505171139 | 78 | 352 | 8.0 | 15.0 | 0.00 | 0.00 | 0.00 | 38 | 1008.0 |
| 20260505160636 | 75 | 313 | 3.0 | 5.0 | 0.00 | 0.00 | 0.00 | 50 | 1009.1 |
| 20260505160134 | 74 | 147 | 11.0 | 14.0 | 0.00 | 0.00 | 0.00 | 51 | 1008.7 |
| 20260505153132 | 72 | 161 | 5.0 | 8.0 | 0.00 | 0.00 | 0.00 | 56 | 1009.8 |
| 20260505152632 | 72 | 187 | 8.0 | 10.0 | 0.00 | 0.00 | 0.00 | 55 | 1009.8 |
| 20260505152133 | 70 | 165 | 9.0 | 14.0 | 0.00 | 0.00 | 0.00 | 58 | 1009.8 |
| 20260505151632 | 70 | 146 | 10.0 | 13.0 | 0.00 | 0.00 | 0.00 | 58 | 1009.8 |
| 20260505151131 | 69 | 160 | 9.0 | 9.0 | 0.00 | 0.00 | 0.00 | 59 | 1010.1 |
| 20260505150630 | 69 | 227 | 7.0 | 9.0 | 0.00 | 0.00 | 0.00 | 58 | 1009.8 |
| 20260505150129 | 68 | 125 | 5.0 | 8.0 | 0.00 | 0.00 | 0.00 | 60 | 1010.1 |
| 20260505140627 | 63 | 120 | 6.0 | 7.0 | 0.00 | 0.00 | 0.00 | 68 | 1010.3 |
| 20260505130122 | 58 | 146 | 7.0 | 10.0 | 0.00 | 0.00 | 0.00 | 76 | 1010.1 |
| 20260505124621 | 56 | 163 | 9.0 | 11.0 | 0.00 | 0.00 | 0.00 | 79 | 1010.3 |
| 20260505124120 | 55 | 170 | 5.0 | 7.0 | 0.00 | 0.00 | 0.00 | 80 | 1010.1 |
| 20260505123720 | 55 | 173 | 6.0 | 8.0 | 0.00 | 0.00 | 0.00 | 81 | 1010.1 |
| 20260505123121 | 54 | 123 | 8.0 | 14.0 | 0.00 | 0.00 | 0.00 | 81 | 1010.1 |
| 20260505122119 | 53 | 146 | 9.0 | 13.0 | 0.00 | 0.00 | 0.00 | 84 | 1010.1 |
| 20260505121622 | 52 | 142 | 8.0 | 11.0 | 0.00 | 0.00 | 0.00 | 86 | 1010.1 |
| 20260505121120 | 51 | 192 | 3.0 | 3.0 | 0.00 | 0.00 | 0.00 | 87 | 1010.1 |
| 20260505120619 | 51 | 206 | 5.0 | 7.0 | 0.00 | 0.00 | 0.00 | 87 | 1010.1 |
| 20260505120118 | 52 | 213 | 5.0 | 7.0 | 0.00 | 0.00 | 0.00 | 86 | 1010.3 |
| 20260505115619 | 52 | 161 | 7.0 | 9.0 | 0.00 | 0.00 | 0.00 | 85 | 1010.1 |
| 20260505115118 | 52 | 57 | 3.0 | 3.0 | 0.00 | 0.00 | 0.00 | 84 | 1010.1 |
| 20260505114617 | 53 | 143 | 4.0 | 7.0 | 0.00 | 0.00 | 0.00 | 83 | 1010.5 |
| 20260505113619 | 53 | 276 | 2.0 | 2.0 | 0.00 | 0.00 | 0.00 | 83 | 1010.5 |
| 20260505112616 | 53 | 141 | 8.0 | 10.0 | 0.00 | 0.00 | 0.00 | 84 | 1010.7 |
| 20260505112145 | 52 | 121 | 4.0 | 6.0 | 0.00 | 0.00 | 0.00 | 85 | 1010.5 |
| 20260505111646 | 51 | 90 | 5.0 | 10.0 | 0.00 | 0.00 | 0.00 | 86 | 1010.1 |
| 20260505110645 | 51 | 156 | 5.0 | 6.0 | 0.00 | 0.00 | 0.00 | 86 | 1010.1 |
| 20260505110144 | 50 | 186 | 5.0 | 7.0 | 0.00 | 0.00 | 0.00 | 87 | 1010.1 |
| 20260505102141 | 48 | 107 | 4.0 | 6.0 | 0.00 | 0.00 | 0.00 | 91 | 1009.8 |
| 20260505101642 | 48 | 173 | 5.0 | 7.0 | 0.00 | 0.00 | 0.00 | 90 | 1009.8 |
| 20260505101142 | 48 | 59 | 3.0 | 5.0 | 0.00 | 0.00 | 0.00 | 90 | 1009.4 |
| 20260505100641 | 48 | 9 | 3.0 | 3.0 | 0.00 | 0.00 | 0.00 | 90 | 1009.6 |
| 20260505100140 | 48 | 38 | 3.0 | 3.0 | 0.00 | 0.00 | 0.00 | 90 | 1009.8 |
| 20260505095641 | 48 | 19 | 2.0 | 3.0 | 0.00 | 0.00 | 0.00 | 90 | 1009.8 |
| 20260505095140 | 48 | 126 | 3.0 | 6.0 | 0.00 | 0.00 | 0.00 | 90 | 1009.8 |
| 20260505094639 | 48 | 86 | 3.0 | 5.0 | 0.00 | 0.00 | 0.00 | 90 | 1009.8 |
| 20260505094139 | 48 | 21 | 2.0 | 3.0 | 0.00 | 0.00 | 0.00 | 89 | 1009.8 |
| 20260505093640 | 49 | 59 | 3.0 | 3.0 | 0.00 | 0.00 | 0.00 | 88 | 1009.8 |
| 20260505093139 | 49 | 259 | 5.0 | 7.0 | 0.00 | 0.00 | 0.00 | 87 | 1009.6 |
| 20260505092640 | 49 | 319 | 2.0 | 2.0 | 0.00 | 0.00 | 0.00 | 87 | 1009.4 |
| 20260505092140 | 49 | 267 | 5.0 | 6.0 | 0.00 | 0.00 | 0.00 | 87 | 1009.8 |
| 20260505091639 | 49 | 18 | 2.0 | 2.0 | 0.00 | 0.00 | 0.00 | 87 | 1009.8 |
| 20260505091138 | 49 | 332 | 2.0 | 2.0 | 0.00 | 0.00 | 0.00 | 87 | 1009.8 |
| 20260505090638 | 49 | 141 | 5.0 | 6.0 | 0.00 | 0.00 | 0.00 | 86 | 1009.8 |
| 20260505090136 | 50 | 253 | 3.0 | 8.0 | 0.00 | 0.00 | 0.00 | 86 | 1010.0 |
| 20260505085639 | 50 | 342 | 2.0 | 5.0 | 0.00 | 0.00 | 0.00 | 85 | 1009.8 |
| 20260505085136 | 50 | 224 | 5.0 | 8.0 | 0.00 | 0.00 | 0.00 | 85 | 1009.8 |
| 20260505084636 | 50 | 317 | 1.0 | 2.0 | 0.00 | 0.00 | 0.00 | 85 | 1010.0 |
| 20260505084136 | 50 | 21 | 2.0 | 2.0 | 0.00 | 0.00 | 0.00 | 85 | 1010.1 |
| 20260505083135 | 50 | 356 | 1.0 | 2.0 | 0.00 | 0.00 | 0.00 | 85 | 1010.1 |
| 20260505082734 | 50 | 8 | 2.0 | 2.0 | 0.00 | 0.00 | 0.00 | 85 | 1010.1 |
| 20260505082134 | 50 | 360 | 1.0 | 2.0 | 0.00 | 0.00 | 0.00 | 85 | 1010.1 |
| 20260505081635 | 50 | 275 | 2.0 | 3.0 | 0.00 | 0.00 | 0.00 | 85 | 1010.1 |
| 20260505080635 | 50 | 323 | 3.0 | 5.0 | 0.00 | 0.00 | 0.00 | 85 | 1009.8 |
| 20260505080133 | 50 | 37 | 3.0 | 3.0 | 0.00 | 0.00 | 0.00 | 84 | 1009.8 |
| 20260505075634 | 50 | 203 | 3.0 | 3.0 | 0.00 | 0.00 | 0.00 | 84 | 1010.0 |
| 20260505075134 | 50 | 3 | 3.0 | 3.0 | 0.00 | 0.00 | 0.00 | 84 | 1010.1 |
| 20260505074734 | 50 | 88 | 3.0 | 5.0 | 0.00 | 0.00 | 0.00 | 83 | 1010.1 |
| 20260505074137 | 50 | 205 | 4.0 | 8.0 | 0.00 | 0.00 | 0.00 | 83 | 1010.1 |
| 20260505073632 | 50 | 334 | 1.0 | 2.0 | 0.00 | 0.00 | 0.00 | 83 | 1010.1 |
| 20260505073131 | 50 | 0 | 1.0 | 2.0 | 0.00 | 0.00 | 0.00 | 82 | 1010.1 |
| 20260505072630 | 50 | 358 | 1.0 | 2.0 | 0.00 | 0.00 | 0.00 | 82 | 1010.1 |
| 20260505072130 | 50 | 350 | 3.0 | 3.0 | 0.00 | 0.00 | 0.00 | 82 | 1010.1 |
| 20260505071629 | 50 | 183 | 3.0 | 5.0 | 0.00 | 0.00 | 0.00 | 82 | 1010.1 |
| 20260505071130 | 50 | 25 | 2.0 | 3.0 | 0.00 | 0.00 | 0.00 | 83 | 1010.3 |
| 20260505070629 | 50 | 91 | 2.0 | 3.0 | 0.00 | 0.00 | 0.00 | 82 | 1010.5 |
| 20260505070128 | 50 | 51 | 2.0 | 3.0 | 0.00 | 0.00 | 0.00 | 82 | 1010.5 |
| 20260505065629 | 50 | 133 | 3.0 | 5.0 | 0.00 | 0.00 | 0.00 | 81 | 1010.1 |
| 20260505065129 | 51 | 6 | 3.0 | 5.0 | 0.00 | 0.00 | 0.00 | 81 | 1010.5 |
| 20260505064628 | 51 | 58 | 3.0 | 5.0 | 0.00 | 0.00 | 0.00 | 81 | 1010.5 |
| 20260505064127 | 51 | 193 | 4.0 | 6.0 | 0.00 | 0.00 | 0.00 | 80 | 1010.1 |
| 20260505063125 | 51 | 128 | 3.0 | 5.0 | 0.00 | 0.00 | 0.00 | 80 | 1010.5 |
| 20260505062126 | 51 | 131 | 3.0 | 3.0 | 0.00 | 0.00 | 0.00 | 80 | 1010.5 |
| 20260505061625 | 51 | 145 | 5.0 | 10.0 | 0.00 | 0.00 | 0.00 | 79 | 1010.5 |
| 20260505061124 | 51 | 137 | 6.0 | 7.0 | 0.00 | 0.00 | 0.00 | 79 | 1010.5 |
| 20260505060627 | 51 | 144 | 3.0 | 7.0 | 0.00 | 0.00 | 0.00 | 79 | 1010.5 |
| 20260505055725 | 51 | 183 | 7.0 | 9.0 | 0.00 | 0.00 | 0.00 | 78 | 1010.5 |
| 20260505055125 | 51 | 188 | 6.0 | 8.0 | 0.00 | 0.00 | 0.00 | 79 | 1010.5 |
| 20260505054624 | 51 | 99 | 4.0 | 6.0 | 0.00 | 0.00 | 0.00 | 80 | 1010.5 |
| 20260505054123 | 50 | 34 | 3.0 | 3.0 | 0.00 | 0.00 | 0.00 | 80 | 1010.5 |
| 20260505053624 | 51 | 71 | 6.0 | 7.0 | 0.00 | 0.00 | 0.00 | 80 | 1010.5 |
| 20260505053121 | 51 | 45 | 3.0 | 5.0 | 0.00 | 0.00 | 0.00 | 80 | 1010.5 |
| 20260505052622 | 51 | 357 | 2.0 | 2.0 | 0.00 | 0.00 | 0.00 | 79 | 1010.5 |
| 20260505052122 | 51 | 18 | 4.0 | 6.0 | 0.00 | 0.00 | 0.00 | 79 | 1010.5 |
| 20260505051621 | 51 | 61 | 4.0 | 5.0 | 0.00 | 0.00 | 0.00 | 79 | 1010.5 |
| 20260505051122 | 51 | 70 | 2.0 | 5.0 | 0.00 | 0.00 | 0.00 | 79 | 1010.5 |
| 20260505050121 | 51 | 27 | 2.0 | 3.0 | 0.00 | 0.00 | 0.00 | 78 | 1010.9 |
| 20260505041117 | 53 | 11 | 2.0 | 3.0 | 0.00 | 0.00 | 0.00 | 74 | 1010.5 |
| 20260505040618 | 53 | 137 | 4.0 | 6.0 | 0.00 | 0.00 | 0.00 | 74 | 1010.5 |
| 20260505040117 | 53 | 13 | 3.0 | 5.0 | 0.00 | 0.00 | 0.00 | 73 | 1010.5 |
| 20260505035616 | 53 | 59 | 4.0 | 6.0 | 0.00 | 0.00 | 0.00 | 73 | 1010.5 |
| 20260505035145 | 53 | 50 | 3.0 | 5.0 | 0.00 | 0.00 | 0.00 | 72 | 1010.5 |
| 20260505034644 | 54 | 128 | 6.0 | 10.0 | 0.00 | 0.00 | 0.00 | 72 | 1010.5 |
| 20260505034145 | 54 | 48 | 4.0 | 5.0 | 0.00 | 0.00 | 0.00 | 71 | 1010.3 |
| 20260505033644 | 54 | 120 | 4.0 | 6.0 | 0.00 | 0.00 | 0.00 | 71 | 1010.1 |
| 20260505033143 | 54 | 116 | 4.0 | 9.0 | 0.00 | 0.00 | 0.00 | 70 | 1010.1 |
| 20260505032645 | 54 | 113 | 4.0 | 6.0 | 0.00 | 0.00 | 0.00 | 70 | 1010.1 |
| 20260505032144 | 54 | 218 | 5.0 | 6.0 | 0.00 | 0.00 | 0.00 | 69 | 1010.1 |
| 20260505031643 | 55 | 57 | 4.0 | 6.0 | 0.00 | 0.00 | 0.00 | 68 | 1010.1 |
| 20260505031142 | 55 | 69 | 3.0 | 5.0 | 0.00 | 0.00 | 0.00 | 68 | 1010.5 |
| 20260505030643 | 55 | 42 | 2.0 | 3.0 | 0.00 | 0.00 | 0.00 | 68 | 1010.5 |
| 20260505030143 | 55 | 71 | 3.0 | 3.0 | 0.00 | 0.00 | 0.00 | 67 | 1010.1 |
| 20260505025642 | 56 | 40 | 3.0 | 3.0 | 0.00 | 0.00 | 0.00 | 66 | 1010.3 |
| 20260505025143 | 56 | 79 | 3.0 | 5.0 | 0.00 | 0.00 | 0.00 | 65 | 1010.5 |
| 20260505024642 | 56 | 172 | 5.0 | 7.0 | 0.00 | 0.00 | 0.00 | 64 | 1010.5 |
| 20260505024141 | 57 | 90 | 5.0 | 7.0 | 0.00 | 0.00 | 0.00 | 63 | 1010.5 |
| 20260505023641 | 57 | 114 | 6.0 | 7.0 | 0.00 | 0.00 | 0.00 | 63 | 1010.5 |
| 20260505023141 | 57 | 69 | 3.0 | 5.0 | 0.00 | 0.00 | 0.00 | 62 | 1010.5 |
| 20260505022641 | 57 | 49 | 4.0 | 7.0 | 0.00 | 0.00 | 0.00 | 61 | 1010.5 |
| 20260505022140 | 57 | 83 | 4.0 | 6.0 | 0.00 | 0.00 | 0.00 | 60 | 1010.5 |
| 20260505021639 | 57 | 79 | 4.0 | 5.0 | 0.00 | 0.00 | 0.00 | 59 | 1010.5 |
| 20260505021139 | 58 | 38 | 2.0 | 5.0 | 0.00 | 0.00 | 0.00 | 58 | 1010.5 |
| 20260505020743 | 58 | 80 | 4.0 | 6.0 | 0.00 | 0.00 | 0.00 | 57 | 1010.5 |
| 20260505020139 | 58 | 39 | 3.0 | 5.0 | 0.00 | 0.00 | 0.00 | 56 | 1010.5 |
| 20260505015638 | 58 | 306 | 3.0 | 5.0 | 0.00 | 0.00 | 0.00 | 55 | 1010.5 |
| 20260505015138 | 57 | 115 | 5.0 | 7.0 | 0.00 | 0.00 | 0.00 | 57 | 1010.3 |
| 20260505014639 | 58 | 343 | 1.0 | 2.0 | 0.00 | 0.00 | 0.00 | 55 | 1010.1 |
| 20260505014138 | 59 | 340 | 1.0 | 1.0 | 0.00 | 0.00 | 0.00 | 55 | 1010.1 |
| 20260505013637 | 59 | 348 | 1.0 | 2.0 | 0.00 | 0.00 | 0.00 | 54 | 1010.1 |
| 20260505013136 | 58 | 335 | 1.0 | 1.0 | 0.00 | 0.00 | 0.00 | 55 | 1010.1 |
| 20260505012635 | 58 | 329 | 1.0 | 1.0 | 0.00 | 0.00 | 0.00 | 54 | 1010.1 |
| 20260505012136 | 59 | 334 | 1.0 | 1.0 | 0.00 | 0.00 | 0.00 | 55 | 1010.1 |
| 20260505011635 | 60 | 344 | 1.0 | 2.0 | 0.00 | 0.00 | 0.00 | 53 | 1010.1 |
| 20260505011135 | 60 | 336 | 0.0 | 1.0 | 0.00 | 0.00 | 0.00 | 52 | 1010.1 |
| 20260505010634 | 60 | 316 | 1.0 | 1.0 | 0.00 | 0.00 | 0.00 | 51 | 1010.1 |
| 20260505010135 | 61 | 355 | 1.0 | 2.0 | 0.00 | 0.00 | 0.00 | 50 | 1010.0 |
| 20260505005634 | 61 | 344 | 1.0 | 1.0 | 0.00 | 0.00 | 0.00 | 50 | 1009.8 |
| 20260505005134 | 60 | 4 | 2.0 | 3.0 | 0.00 | 0.00 | 0.00 | 50 | 1010.1 |
| 20260505004634 | 60 | 19 | 2.0 | 2.0 | 0.00 | 0.00 | 0.00 | 50 | 1009.8 |
| 20260505004134 | 60 | 331 | 0.0 | 1.0 | 0.00 | 0.00 | 0.00 | 51 | 1009.8 |
| 20260505003633 | 61 | 334 | 0.0 | 1.0 | 0.00 | 0.00 | 0.00 | 51 | 1009.8 |
| 20260505003132 | 61 | 336 | 1.0 | 1.0 | 0.00 | 0.00 | 0.00 | 50 | 1009.8 |
| 20260505002632 | 62 | 324 | 0.0 | 1.0 | 0.00 | 0.00 | 0.00 | 49 | 1009.6 |
| 20260505002133 | 62 | 0.0 | 0.0 | 0.00 | 0.00 | 0.00 | 49 | 1009.4 | |
| 20260505001632 | 62 | 0.0 | 0.0 | 0.00 | 0.00 | 0.00 | 49 | 1009.4 | |
| 20260505001131 | 61 | 343 | 1.0 | 2.0 | 0.00 | 0.00 | 0.00 | 49 | 1009.4 |
| 20260505000630 | 62 | 332 | 0.0 | 1.0 | 0.00 | 0.00 | 0.00 | 49 | 1009.4 |
| 20260505000129 | 62 | 0.0 | 0.0 | 0.00 | 0.00 | 0.00 | 48 | 1009.3 | |
| 20260504235629 | 63 | 344 | 1.0 | 2.0 | 0.00 | 0.00 | 0.00 | 49 | 1009.1 |
| 20260504235130 | 63 | 337 | 1.0 | 1.0 | 0.00 | 0.00 | 0.00 | 48 | 1009.1 |
| 20260504234629 | 63 | 332 | 0.0 | 1.0 | 0.00 | 0.00 | 0.00 | 47 | 1009.1 |
| 20260504234128 | 64 | 0.0 | 0.0 | 0.00 | 0.00 | 0.00 | 46 | 1009.1 | |
| 20260504233629 | 64 | 326 | 0.0 | 1.0 | 0.00 | 0.00 | 0.00 | 46 | 1009.1 |
| 20260504233129 | 64 | 313 | 1.0 | 1.0 | 0.00 | 0.00 | 0.00 | 46 | 1008.7 |
| 20260504232628 | 64 | 347 | 1.0 | 2.0 | 0.00 | 0.00 | 0.00 | 46 | 1008.7 |
| 20260504232127 | 65 | 314 | 1.0 | 1.0 | 0.00 | 0.00 | 0.00 | 45 | 1008.7 |
| 20260504231626 | 65 | 318 | 1.0 | 2.0 | 0.00 | 0.00 | 0.00 | 45 | 1008.7 |
| 20260504231127 | 65 | 346 | 1.0 | 2.0 | 0.00 | 0.00 | 0.00 | 45 | 1008.7 |
| 20260504230627 | 65 | 330 | 0.0 | 2.0 | 0.00 | 0.00 | 0.00 | 45 | 1008.7 |
| 20260504230126 | 65 | 324 | 0.0 | 1.0 | 0.00 | 0.00 | 0.00 | 44 | 1008.7 |
| 20260504225625 | 65 | 320 | 0.0 | 1.0 | 0.00 | 0.00 | 0.00 | 44 | 1008.7 |
| 20260504225126 | 66 | 311 | 0.0 | 1.0 | 0.00 | 0.00 | 0.00 | 44 | 1008.4 |
| 20260504224625 | 66 | 97 | 1.0 | 3.0 | 0.00 | 0.00 | 0.00 | 44 | 1008.4 |
| 20260504224225 | 66 | 286 | 4.0 | 6.0 | 0.00 | 0.00 | 0.00 | 43 | 1008.4 |
| 20260504223625 | 66 | 297 | 3.0 | 6.0 | 0.00 | 0.00 | 0.00 | 44 | 1008.7 |
| 20260504223124 | 66 | 129 | 4.0 | 6.0 | 0.00 | 0.00 | 0.00 | 44 | 1008.4 |
| 20260504222624 | 67 | 350 | 2.0 | 2.0 | 0.00 | 0.00 | 0.00 | 43 | 1008.4 |
| 20260504222124 | 67 | 342 | 3.0 | 6.0 | 0.00 | 0.00 | 0.00 | 43 | 1008.4 |
| 20260504221623 | 66 | 337 | 1.0 | 2.0 | 0.00 | 0.00 | 0.00 | 42 | 1008.4 |
| 20260504221222 | 67 | 184 | 4.0 | 8.0 | 0.00 | 0.00 | 0.00 | 42 | 1008.2 |
| 20260504220724 | 66 | 314 | 4.0 | 6.0 | 0.00 | 0.00 | 0.00 | 43 | 1008.4 |
| 20260504220222 | 67 | 353 | 3.0 | 5.0 | 0.00 | 0.00 | 0.00 | 42 | 1008.0 |
| 20260504215621 | 68 | 332 | 3.0 | 5.0 | 0.00 | 0.00 | 0.00 | 41 | 1008.0 |
| 20260504215120 | 67 | 316 | 1.0 | 2.0 | 0.00 | 0.00 | 0.00 | 42 | 1008.2 |
| 20260504214622 | 68 | 306 | 5.0 | 7.0 | 0.00 | 0.00 | 0.00 | 41 | 1008.0 |
| 20260504214121 | 69 | 319 | 3.0 | 5.0 | 0.00 | 0.00 | 0.00 | 40 | 1008.0 |
| 20260504213219 | 68 | 342 | 5.0 | 7.0 | 0.00 | 0.00 | 0.00 | 41 | 1008.0 |
| 20260504212121 | 68 | 331 | 4.0 | 7.0 | 0.00 | 0.00 | 0.00 | 41 | 1008.4 |
| 20260504211619 | 68 | 355 | 9.0 | 14.0 | 0.00 | 0.00 | 0.00 | 41 | 1008.4 |
| 20260504211118 | 68 | 306 | 2.0 | 3.0 | 0.00 | 0.00 | 0.00 | 41 | 1008.4 |
| 20260504210619 | 67 | 309 | 5.0 | 10.0 | 0.00 | 0.00 | 0.00 | 42 | 1008.6 |
| 20260504210118 | 68 | 321 | 4.0 | 9.0 | 0.00 | 0.00 | 0.00 | 42 | 1008.6 |
| 20260504205618 | 68 | 12 | 1.0 | 1.0 | 0.00 | 0.00 | 0.00 | 41 | 1008.4 |
| 20260504205117 | 67 | 312 | 8.0 | 13.0 | 0.00 | 0.00 | 0.00 | 42 | 1008.4 |
| 20260504204616 | 66 | 299 | 5.0 | 7.0 | 0.00 | 0.00 | 0.00 | 43 | 1008.7 |
| 20260504204117 | 67 | 323 | 6.0 | 10.0 | 0.00 | 0.00 | 0.00 | 42 | 1008.4 |
| 20260504203616 | 67 | 325 | 4.0 | 5.0 | 0.00 | 0.00 | 0.00 | 43 | 1008.7 |
| 20260504203120 | 67 | 159 | 8.0 | 14.0 | 0.00 | 0.00 | 0.00 | 42 | 1008.7 |
| 20260504202648 | 67 | 8 | 4.0 | 8.0 | 0.00 | 0.00 | 0.00 | 43 | 1008.4 |
| 20260504202149 | 66 | 330 | 5.0 | 7.0 | 0.00 | 0.00 | 0.00 | 42 | 1008.4 |
| 20260504201645 | 67 | 292 | 4.0 | 7.0 | 0.00 | 0.00 | 0.00 | 42 | 1008.6 |
| 20260504201144 | 66 | 303 | 6.0 | 7.0 | 0.00 | 0.00 | 0.00 | 43 | 1008.7 |
| 20260504200643 | 66 | 357 | 2.0 | 2.0 | 0.00 | 0.00 | 0.00 | 44 | 1008.7 |
| 20260504200145 | 67 | 350 | 3.0 | 7.0 | 0.00 | 0.00 | 0.00 | 42 | 1008.6 |
| 20260504195644 | 66 | 319 | 3.0 | 5.0 | 0.00 | 0.00 | 0.00 | 44 | 1008.7 |
| 20260504195143 | 68 | 2 | 5.0 | 6.0 | 0.00 | 0.00 | 0.00 | 42 | 1008.7 |
| 20260504194144 | 68 | 355 | 6.0 | 8.0 | 0.00 | 0.00 | 0.00 | 42 | 1008.6 |
| 20260504193142 | 66 | 292 | 5.0 | 10.0 | 0.00 | 0.00 | 0.00 | 42 | 1008.7 |
| 20260504192641 | 65 | 339 | 4.0 | 8.0 | 0.00 | 0.00 | 0.00 | 44 | 1008.7 |
| 20260504192142 | 66 | 335 | 4.0 | 9.0 | 0.00 | 0.00 | 0.00 | 43 | 1009.1 |
| 20260504191642 | 65 | 3 | 2.0 | 3.0 | 0.00 | 0.00 | 0.00 | 44 | 1008.7 |
| 20260504191141 | 65 | 302 | 5.0 | 10.0 | 0.00 | 0.00 | 0.00 | 43 | 1009.1 |
| 20260504190640 | 65 | 301 | 3.0 | 6.0 | 0.00 | 0.00 | 0.00 | 43 | 1008.7 |
| 20260504185640 | 65 | 304 | 8.0 | 14.0 | 0.00 | 0.00 | 0.00 | 43 | 1008.7 |
| 20260504185140 | 66 | 238 | 4.0 | 6.0 | 0.00 | 0.00 | 0.00 | 44 | 1008.7 |
| 20260504184639 | 64 | 298 | 4.0 | 7.0 | 0.00 | 0.00 | 0.00 | 44 | 1008.7 |
| 20260504184238 | 64 | 301 | 4.0 | 6.0 | 0.00 | 0.00 | 0.00 | 44 | 1008.7 |
| 20260504183639 | 66 | 331 | 7.0 | 13.0 | 0.00 | 0.00 | 0.00 | 43 | 1008.9 |
| 20260504183138 | 65 | 248 | 5.0 | 7.0 | 0.00 | 0.00 | 0.00 | 44 | 1008.7 |
| 20260504182637 | 65 | 308 | 3.0 | 5.0 | 0.00 | 0.00 | 0.00 | 44 | 1008.7 |
| 20260504182138 | 65 | 327 | 5.0 | 11.0 | 0.00 | 0.00 | 0.00 | 43 | 1009.1 |
| 20260504181638 | 65 | 355 | 4.0 | 7.0 | 0.00 | 0.00 | 0.00 | 44 | 1009.1 |
| 20260504181137 | 64 | 42 | 3.0 | 5.0 | 0.00 | 0.00 | 0.00 | 45 | 1008.7 |
| 20260504180701 | 64 | 338 | 4.0 | 6.0 | 0.00 | 0.00 | 0.00 | 44 | 1008.9 |